Weather History for Dallas Addison, TX

Change the Weather History Date:

Sunday, May 12, 2013

  Actual Average Record
Temperature  
Mean Temperature 68 °F -  
Max Temperature 77 °F 81 °F 93 °F (2000)
Min Temperature 59 °F 63 °F 53 °F (2008)
Cooling Degree Days 3    
Growing Degree Days 18 (Base 50)    
Moisture  
Dew Point 36 °F    
Average Humidity 34    
Maximum Humidity 52    
Minimum Humidity 15    
Precipitation  
Precipitation 0.00 in - - ()
Sea Level Pressure  
Sea Level Pressure 30.21 in    
Wind  
Wind Speed 9 mph (ENE)    
Max Wind Speed 15 mph    
Max Gust Speed 24 mph    
Visibility 12 miles    
Events      
Averages and records for this station are not official NWS values.
T = Trace of Precipitation, MM = Missing Value Source: NWS Daily Summary

Daily Weather History Graph

Daily Weather History Graph

Search for Another Location

Airport:

Trip Planner

Search our weather history database for the weather conditions in past years. The results will help you decide how hot, cold, wet, or windy it might be!

Date:

Astronomy

May. 12, 2013 Rise Set
Actual Time 6:30 AM CDT 8:17 PM CDT
Civil Twilight 6:02 AM CDT 8:44 PM CDT
Nautical Twilight 5:30 AM CDT 9:17 PM CDT
Astronomical Twilight 4:55 AM CDT 9:52 PM CDT
Moon 8:27 AM CDT (5/12) 10:44 PM CDT (5/12)
Length of Visible Light 14h 41m
Length of Day
13h 47m
Waxing Crescent, 7% of the Moon is Illuminated
May 12
Waxing Crescent
May 17
First Quarter
May 24
Full
May 31
Last Quarter
Jun 8
New

Hourly Weather History & Observations

Time (CDT) Temp. Dew Point Humidity Pressure Visibility Wind Dir Wind Speed Gust Speed Precip Events Conditions
12:15 AM 68.0 °F 48.2 °F 49% 30.19 in 10.0 mi NNE 6.9 mph - N/A   Clear
12:35 AM 68.0 °F 48.2 °F 49% 30.19 in 10.0 mi NNE 8.1 mph - N/A   Clear
12:55 AM 68.0 °F 50.0 °F 52% 30.19 in 10.0 mi NNE 10.4 mph - N/A   Clear
1:15 AM 68.0 °F 48.2 °F 49% 30.19 in 10.0 mi NE 10.4 mph 16.1 mph N/A   Clear
1:35 AM 66.2 °F 48.2 °F 52% 30.19 in 10.0 mi NNE 11.5 mph 16.1 mph N/A   Clear
1:55 AM 66.2 °F 46.4 °F 49% 30.19 in 10.0 mi NE 11.5 mph 16.1 mph N/A   Clear
2:15 AM 64.4 °F 44.6 °F 49% 30.19 in 10.0 mi NNE 10.4 mph - N/A   Clear
2:35 AM 64.4 °F 42.8 °F 45% 30.19 in 10.0 mi NE 11.5 mph 18.4 mph N/A   Clear
2:55 AM 64.4 °F 42.8 °F 45% 30.19 in 10.0 mi NE 9.2 mph - N/A   Clear
3:15 AM 62.6 °F 41.0 °F 45% 30.19 in 10.0 mi NE 10.4 mph - N/A   Clear
3:35 AM 62.6 °F 39.2 °F 42% 30.19 in 10.0 mi NE 11.5 mph - N/A   Clear
3:55 AM 62.6 °F 37.4 °F 39% 30.20 in 10.0 mi NE 9.2 mph - N/A   Clear
4:35 AM 62.6 °F 33.8 °F 34% 30.19 in 10.0 mi NE 10.4 mph 18.4 mph N/A   Clear
4:55 AM 60.8 °F 33.8 °F 36% 30.20 in 10.0 mi NE 10.4 mph 16.1 mph N/A   Clear
5:15 AM 60.8 °F 33.8 °F 36% 30.21 in 10.0 mi NE 13.8 mph 18.4 mph N/A   Clear
5:35 AM 60.8 °F 32.0 °F 34% 30.21 in 10.0 mi ENE 13.8 mph 20.7 mph N/A   Clear
5:47 AM 60.8 °F 33.8 °F 36% 30.22 in 13.0 mi NE 12.7 mph 19.6 mph N/A   Scattered Clouds
5:55 AM 60.8 °F 32.0 °F 34% 30.21 in 10.0 mi ENE 10.4 mph - N/A   Clear
6:47 AM 59.0 °F 33.8 °F 39% 30.23 in 13.0 mi NE 9.2 mph 17.3 mph N/A   Partly Cloudy
7:47 AM 59.0 °F 35.6 °F 42% 30.26 in 15.0 mi ENE 8.1 mph - N/A   Partly Cloudy
8:47 AM 62.6 °F 35.6 °F 37% 30.27 in 13.0 mi ENE 11.5 mph 17.3 mph N/A   Partly Cloudy
9:47 AM 66.2 °F 32.0 °F 28% 30.27 in 15.0 mi ENE 15.0 mph 24.2 mph N/A   Scattered Clouds
10:50 AM 68.0 °F 30.2 °F 24% 30.27 in 15.0 mi East 9.2 mph 17.3 mph N/A   Partly Cloudy
11:47 AM 69.8 °F 30.2 °F 23% 30.28 in 13.0 mi ESE 6.9 mph - N/A   Partly Cloudy
12:47 PM 71.6 °F 28.4 °F 20% 30.26 in 13.0 mi ESE 6.9 mph - N/A   Scattered Clouds
1:47 PM 73.4 °F 32.0 °F 22% 30.25 in 13.0 mi ESE 8.1 mph - N/A   Mostly Cloudy
2:55 PM 75.2 °F 30.2 °F 19% 30.22 in 20.0 mi Calm Calm - N/A   Mostly Cloudy
3:47 PM 75.2 °F 24.8 °F 15% 30.20 in 20.0 mi Calm Calm - N/A   Scattered Clouds
4:47 PM 77.0 °F 26.6 °F 16% 30.19 in 20.0 mi Calm Calm - N/A   Scattered Clouds
6:47 PM 75.2 °F 26.6 °F 17% 30.16 in 20.0 mi ESE 6.9 mph - N/A   Mostly Cloudy
9:47 PM 69.8 °F 30.2 °F 23% 30.17 in 20.0 mi SE 8.1 mph - N/A   Clear
10:15 PM 68.0 °F 32.0 °F 26% 30.18 in 10.0 mi SSE 5.8 mph - N/A   Clear
10:35 PM 68.0 °F 32.0 °F 26% 30.19 in 10.0 mi SSE 6.9 mph - N/A   Clear
10:55 PM 68.0 °F 32.0 °F 26% 30.19 in 10.0 mi South 8.1 mph - N/A   Clear
11:15 PM 68.0 °F 32.0 °F 26% 30.19 in 10.0 mi South 6.9 mph - N/A   Clear
11:35 PM 68.0 °F 33.8 °F 28% 30.19 in 10.0 mi South 4.6 mph - N/A   Clear
11:55 PM 64.4 °F 33.8 °F 32% 30.19 in 10.0 mi South 4.6 mph - N/A   Clear